AirNav   Everest Fuels
 
 1357 users online  

N71 Donegal Springs Airpark
Mount Joy/Marietta, Pennsylvania, USA

GOING TO MOUNT JOY/MARIETTA?


FAA INFORMATION EFFECTIVE 10 OCTOBER 2019

Location

FAA Identifier: N71
Lat/Long: 40-05-31.9440N 076-34-27.6790W
40-05.532400N 076-34.461317W
40.0922067,-76.5743553
(estimated)
Elevation: 458 ft. / 140 m (estimated)
Variation: 09W (1975)
From city: 3 miles SW of central business district of the associated city
Time zone: UTC -4 (UTC -5 during Standard Time)
Zip code: 17547

Airport Operations

Airport use: Open to the public
Activation date: 05/1947
Control tower: no
ARTCC: NEW YORK CENTER
FSS: WILLIAMSPORT FLIGHT SERVICE STATION
NOTAMs facility: IPT (NOTAM-D service available)
Attendance: MON-FRI 0800-1700, ALL SAT UNATTND, ALL SUN UNATTND
Wind indicator: yes
Segmented circle: no
Lights: ACTVT MIRL RWY 10/28 - CTAF.
Beacon: white-green (lighted land airport)
ACTVT ROTG BCN - CTAF

Airport Communications

CTAF/UNICOM: 122.8
HARRISBURG APPROACH: 126.45
HARRISBURG DEPARTURE: 126.45
CLEARANCE DELIVERY: 127.05
WX ASOS at MDT (11 nm NW): PHONE 717-944-1372
WX ASOS at LNS (13 nm E): 125.675 (717-569-8860)
WX ASOS at CXY (15 nm NW): PHONE 717-770-0880
WX ASOS at THV (17 nm SW): 119.275 (717-792-5529)
WX AWOS-2 at 9D4 (19 nm NE): 118.45 (717-866-2906)

Nearby radio navigation aids

VOR radial/distance  VOR name  Freq  Var
LRPr272/13.1LANCASTER VOR/DME117.3009W
HARr129/26.0HARRISBURG VORTAC112.5010W
RAVr189/27.7RAVINE VORTAC114.6011W

 
NDB name  Hdg/Dist  Freq  Var  ID
BELLGROVE193/20.632810WBZJ -... --.. .---

Airport Services

Fuel available: 100LL
Parking: tiedowns
Airframe service: MAJOR
Powerplant service: MAJOR
Bottled oxygen: NONE
Bulk oxygen: NONE

Runway Information

Runway 10/28

Dimensions: 3250 x 50 ft. / 991 x 15 m
Surface: asphalt, in fair condition
Weight bearing capacity: 
Single wheel: 12.5
Runway edge lights: medium intensity
RUNWAY 10  RUNWAY 28
Latitude: 40-05.508200N40-05.557200N
Longitude: 076-34.809183W076-34.115083W
Elevation: 458.0 ft.400.0 ft.
Traffic pattern: leftleft
Runway heading: 094 magnetic, 085 true274 magnetic, 265 true
Displaced threshold: 300 ft.
RWY 10 DTHR BAR 300 FT FM RWY END, DTHR LGTS 300 FT FM RWY END.
no
Markings: nonprecision, in good conditionnonprecision, in good condition
Touchdown point: yes, no lightsyes, no lights

Airport Ownership and Management from official FAA records

Ownership: Privately-owned
Owner: N71, INC.
22529 CHICKADEE CIRCLE
LEXINGTON PARK, MD 20653
Phone 301-904-0299
Manager: BEN TRAVIS
186 AIRPORT RD
MARIETTA, PA 17547
Phone 717-928-4360

Airport Operational Statistics

Aircraft based on the field: 15
Single engine airplanes: 14
Multi engine airplanes: 1
    
Aircraft operations: avg 33/day *
50% local general aviation
42% transient general aviation
8% military
* for 12-month period ending 18 December 2018

Additional Remarks

A57-10 RWY 10 APCH SLOPE RATIO 20:1 TO DTHR LGTS 300 FT FM RWY END.
FOR CD CTC HARRISBURG APCH AT 800-932-0712.
A58-10 RWY 10; 15 FT ROAD 16 FT FM RWY END.
A52-10 RWY 10 HAS 30 FT HOUSE 190 FT FM DTHR, 206 FT RIGHT; APCH RATIO 6:1 TO DTHR.

Instrument Procedures

NOTE: All procedures below are presented as PDF files. If you need a reader for these files, you should download the free Adobe Reader.

NOT FOR NAVIGATION. Please procure official charts for flight.
FAA instrument procedures published for use from 10 October 2019 at 0901Z to 7 November 2019 at 0900Z.

 
IAPs - Instrument Approach Procedures
RNAV (GPS) RWY 28   download (158KB)
VOR RWY 28   download (188KB)
NOTE: Special Take-Off Minimums/Departure Procedures apply   download (149KB)

Other nearby airports with instrument procedures:

KMDT - Harrisburg International Airport (11 nm NW)
58N - Reigle Field Airport (12 nm N)
KLNS - Lancaster Airport (13 nm E)
KCXY - Capital City Airport (15 nm NW)
08N - Keller Brothers Airport (16 nm NE)
KTHV - York Airport (17 nm SW)
9D4 - Deck Airport (19 nm NE)
 
Loc | Ops | Rwys | IFR | FBO | Links
Com | Nav | Svcs | Stats | Notes
Area around N71 (Donegal Springs Airpark)
 
Road maps at: MapQuest Bing Google
 
Aerial photo
WARNING: Photo may not be current or correct
Aerial photo of N71 (Donegal Springs Airpark)
Looking east.

Do you have a better or more recent aerial photo of Donegal Springs Airpark that you would like to share? If so, please send us your photo.

 
Sectional chart

 
Airport distance calculator
Flying to Donegal Springs Airpark? Find the distance to fly.

From to N71

Sunrise and sunset
Times for 22-Oct-2019
 Local
(UTC-4)
 Zulu
(UTC)
Morning civil twilight06:5810:58
Sunrise07:2511:25
Sunset18:1622:16
Evening civil twilight18:4422:44

Current date and time
Zulu (UTC)  22-Oct-2019 20:40:38
Local (UTC-4)  22-Oct-2019 16:40:38
 
METAR
KMDT 
11nm NW 
222016Z 30007KT 1SM R13/5000VP6000FT +RA BR FEW010 SCT014 OVC020 16/14 A2982 RMK AO2 TWR VIS 2 P0009 T01610144
KLNS 
13nm E 
221953Z 14009KT 5SM RA BR BKN008 OVC012 17/16 A2981 RMK AO2 CIG 005V011 SLP094 P0008 T01720156
KCXY 
15nm NW 
222023Z 26004KT 3SM RA FEW012 BKN031 OVC049 17/14 A2984 RMK AO2 P0007 T01720144
KTHV 
18nm SW 
222023Z AUTO 28005KT 1 1/2SM RA BR SCT009 SCT017 OVC021 15/14 A2983 RMK AO2 P0011 T01500139
KMUI 
19nm N 
221956Z 33003KT 2SM RA BR OVC003 15/15 A2983 RMK AO2A SLP104 P0033 T01480146
TAF
KMDT 
11nm NW 
221720Z 2218/2318 13007KT 6SM -DZ BR OVC010 WS020/16030KT FM221930 13007KT 4SM RA BR OVC007 WS016/17030KT FM230300 30004KT 4SM BR OVC070 WS016/17030KT FM230500 30007KT 4SM BR SKC FM231200 30009KT P6SM BKN250 FM231600 29012G19KT P6SM SKC
KLNS 
13nm E 
221720Z 2218/2318 11007KT 3SM -DZ BR OVC005 WS020/17030KT FM221930 12008KT 4SM RA BR OVC007 WS020/17030KT FM230300 30004KT 4SM BR OVC070 WS016/17030KT FM230500 30007KT 4SM BR SKC FM231200 30009KT P6SM BKN250 FM231600 29012G19KT P6SM SKC
KMUI 
19nm N 
221900Z 2219/2401 13009KT 8000 -SHRA OVC004 510053 QNH2981INS BECMG 2219/2220 11006KT 4800 -RA OVC006 QNH2976INS TEMPO 2220/2221 OVC009 BECMG 2301/2302 28006KT 9999 NSW BKN015 QNH2982INS BECMG 2305/2306 29012KT 9999 FEW040 QNH2982INS BECMG 2314/2315 28015G25KT 9999 SCT015 QNH3000INS BECMG 2320/2321 27009KT 9999 SKC QNH3004INS TX16/2221Z TN09/2312Z LAST NO AMDS AFT 2304 NEXT 2311
NOTAMs
Click for the latest NOTAMs
NOTAMs are issued by the DoD/FAA and will open in a separate window not controlled by AirNav.

 

 
 

FBO, Fuel Providers, and Aircraft Ground Support

  
 Business Name 
 
 Contact 
 
 Services / Description 
 
Fuel Prices
 
Comments
  
N71, Inc. 301-904-0299
no information available

If you are affiliated with N71, Inc. and would like to show here your services, contact info, web link, logo, and more, click here
100LL
SS $5.15 
 Updated 23-May-2019
 
   2 read write
SS=Self service
Update Fuel Prices
 

Would you like to see your business listed on this page?

 If your business provides an interesting product or service to pilots, flight crews, aircraft, or users of the Donegal Springs Airpark, you should consider listing it here.  To start the listing process, click on the button below
 
Add a business
 

Other Pages about Donegal Springs Airpark

Update a link
 
Copyright © AirNav, LLC. All rights reserved. Privacy Policy  Contact